Regional Weather Roundup
Issued by NWS

Home | Current Version | Previous Version | Graphics & Text | Print | Product List | Glossary On
Versions: 1 2 3 4 5 6 7 8 9 10 11 12 13 14 15 16 17 18 19 20 21 22 23 24 25 26 27 28
000
ASUS45 KSLC 300110
RWRUT

UTAH REGIONAL WEATHER ROUNDUP
NATIONAL WEATHER SERVICE SALT LAKE CITY UT
700 PM MDT WED MAR 29 2017

UTZ001>011-023>025-300200-

NORTHERN UTAH

CITY           SKY/WX    TMP DP  RH WIND       PRES   REMARKS
BRIGHAM CITY   PTCLDY    55  29  37 SW8       30.10F
HILL AFB       PTCLDY    52  29  40 SW6       30.11F
LOGAN          PTCLDY    56  33  42 CALM      30.08F
OGDEN          PTCLDY    52  30  43 SW6       30.10F
SALT LAKE CITY MOCLDY    56  32  40 N5        30.10F
TOOELE VALLEY  CLEAR     54  36  50 CALM      30.11F
WENDOVER       PTSUNNY   58  32  37 S9        30.09F
HEBER CITY     PTCLDY    54  28  37 SW13      30.08S
WEST JORDAN    PTCLDY    56  41  57 NW3       30.12F

$$

UTZ011>015-024>027-300200-

CENTRAL/NORTHEAST UTAH

CITY           SKY/WX    TMP DP  RH WIND       PRES   REMARKS
PROVO AIRPORT  CLEAR     55  34  45 SW5       30.12F
MOAB/CANYONLAN CLEAR     62  19  19 W6        30.01S
DELTA          CLEAR     54  30  40 S5        30.13F
PRICE          CLEAR     57  22  25 NW13      30.05S
RICHFIELD      CLEAR     55  32  41 N8        30.14S
ROOSEVELT      CLEAR     55  28  35 E3        30.05F
VERNAL         CLEAR     55  25  31 CALM      30.04F

$$

UTZ013>016-019>022-027-300200-

SOUTHERN UTAH

CITY           SKY/WX    TMP DP  RH WIND       PRES   REMARKS
BRYCE CANYON   CLEAR     51  27  39 NW16      30.15F
CEDAR CITY     CLEAR     57  29  34 N7        30.13S
MILFORD        CLEAR     57  31  37 NE7       30.12F
ST GEORGE      PTCLDY    72  28  19 SW21      30.00F
HANKSVILLE     PTCLDY    64  18  16 S5        30.03S
KANAB          CLEAR     64  23  20 W12       30.10S
BLANDING       CLEAR     56  19  23 NW13      30.12S

$$

REGIONAL REPORTS     COLORADO/ARIZONA

CITY           SKY/WX    TMP DP  RH WIND       PRES   REMARKS
CRAIG, CO      CLEAR     50  23  34 W7        30.06S
GRAND JUNCTION CLEAR     61  24  24 W12       30.00F
RIFLE, CO      CLEAR     58  24  27 N6        30.03S
MONTROSE, CO   CLEAR     56  23  27 NW7       30.06R
CORTEZ, CO     CLEAR     58  20  22 N13       30.03R
COLORADO CITY    N/A     64  28  25 NW10      30.10F
PAGE, AZ       CLEAR     68  17  14 SE5       30.00F
GRAND CANYON   CLEAR     57  20  23 N9        30.14S
KINGMAN, AZ    SUNNY     71   0   6 N10       30.04S
FLAGSTAFF, AZ  CLEAR     58  12  16 NW7       30.12R

$$

REGIONAL REPORTS    NEVADA/IDAHO/WYOMING

CITY           SKY/WX    TMP DP  RH WIND       PRES   REMARKS
LAS VEGAS, NV  MOSUNNY   77  19  11 CALM      29.99F
ELY, NY        PTSUNNY   61  27  27 NW8       30.12S
ELKO, NV       CLOUDY    58  35  42 SW10      30.08F
POCATELLO, ID  CLOUDY    55  36  48 W14       30.05F
BURLEY, ID     CLOUDY    56  36  47 W7        30.03F
FORT BRIDGER,  MOCLDY    49  28  44 W20       30.12S
EVANSTON, WY   CLOUDY    46  26  45 W16       30.12S
ROCK SPRINGS,  CLEAR     49  27  42 W21       30.04S
KEMMERER, WY     N/A     43  30  61 NW8       30.10S

$$




USA.gov is the U.S. government's official web portal to all federal, state and local government web resources and services.